Starlink 31166

operational
NORAD ID: 58789 Int'l Des: 2024-012 Owner: SPXS Country: US Constellation: starlink
LEOCIRCULAR

Über Starlink 31166

Beschreibung wird geladen...

Live-Position

3D-Globus wird geladen...

Nächste Überflüge

Höhenverlauf

Altitude vs Time

uPlot chart will show altitude changes over time

Zweizeiliger Elementsatz

1 58789U 24012C 25256.79300261 .00001819 00000-0 75576-4 0 9997
2 58789 43.0013 84.1083 0001510 250.6419 109.4270 15.27594843 94181
Epoch: 13. Sept. 2025 • Age: 55 hours

Aktueller Status

Höhe 487.2 km
Geschwindigkeit 7.63 km/s
Subsatellitenpunkt 43.15°N, 129.15°E
Startdatum 15. Jan. 2024
Alter 1.6 years
Typ internet

Technische Details

Klassifizierung Payload
Masse 730.00 kg
Trockenmasse 700.00 kg
Gesamtmasse 730.00 kg
Länge 0.30 m
Durchmesser 4.10 m
Spannweite 29.00 m
Form Box + pan
Hersteller SPXS
Bus-Typ Starlink V2M
Phasenstatus In Orbit
Besitzer/Staat SPXS/US

Große Konstellationen

Loading constellations...